Time,TemperatureF,DewpointF,PressureIn,WindDirection,WindDirectionDegrees,WindSpeedMPH,WindSpeedGustMPH,Humidity,HourlyPrecipIn,Conditions,Clouds,dailyrainin,SoftwareType,DateUTC
2013-06-26 00:03:00,65.8,45.0,29.88,SW,218,9.0,9.0,47,0.00,CLR,CLR,0.00,WeatherDisplay:10.34,2013-06-26 06:03:00,
2013-06-26 00:08:00,65.7,45.5,29.88,SW,232,7.0,7.0,48,0.00,CLR,CLR,0.00,WeatherDisplay:10.34,2013-06-26 06:08:00,
2013-06-26 00:13:00,65.4,45.2,29.88,SW,221,10.0,10.0,48,0.00,CLR,CLR,0.00,WeatherDisplay:10.34,2013-06-26 06:13:00,
2013-06-26 00:18:00,65.2,45.0,29.88,SSW,205,11.0,11.0,48,0.00,CLR,CLR,0.00,WeatherDisplay:10.34,2013-06-26 06:18:00,
2013-06-26 00:23:00,65.1,44.9,29.89,SSW,206,8.0,8.0,48,0.00,CLR,CLR,0.00,WeatherDisplay:10.34,2013-06-26 06:23:00,
2013-06-26 00:28:00,65.0,45.4,29.89,SW,227,11.0,12.0,49,0.00,CLR,CLR,0.00,WeatherDisplay:10.34,2013-06-26 06:28:00,
2013-06-26 00:33:00,65.0,45.4,29.89,SW,221,8.0,8.0,49,0.00,CLR,CLR,0.00,WeatherDisplay:10.34,2013-06-26 06:33:00,
2013-06-26 00:38:00,64.8,45.7,29.89,SSW,198,11.0,11.0,50,0.00,CLR,CLR,0.00,WeatherDisplay:10.34,2013-06-26 06:38:00,
2013-06-26 00:43:00,64.8,45.7,29.89,SSW,206,11.0,11.0,50,0.00,CLR,CLR,0.00,WeatherDisplay:10.34,2013-06-26 06:43:00,
2013-06-26 00:48:00,64.8,45.7,29.89,SSW,208,11.0,11.0,50,0.00,CLR,CLR,0.00,WeatherDisplay:10.34,2013-06-26 06:48:00,
2013-06-26 00:53:00,64.4,46.4,29.88,South,190,14.0,14.0,52,0.00,CLR,CLR,0.00,WeatherDisplay:10.34,2013-06-26 06:53:00,
2013-06-26 00:58:00,63.6,46.1,29.88,South,190,11.0,11.0,53,0.00,CLR,CLR,0.00,WeatherDisplay:10.34,2013-06-26 06:58:00,
2013-06-26 01:03:00,63.3,45.9,29.87,SSW,205,10.0,10.0,53,0.00,CLR,CLR,0.00,WeatherDisplay:10.34,2013-06-26 07:03:00,
2013-06-26 01:08:00,63.4,45.5,29.87,SSW,202,12.0,13.0,52,0.00,CLR,CLR,0.00,WeatherDisplay:10.34,2013-06-26 07:08:00,
2013-06-26 01:13:00,64.0,45.0,29.88,SSW,206,13.0,14.0,50,0.00,CLR,CLR,0.00,WeatherDisplay:10.34,2013-06-26 07:13:00,
2013-06-26 01:18:00,64.8,44.6,29.88,SW,216,11.0,11.0,48,0.00,CLR,CLR,0.00,WeatherDisplay:10.34,2013-06-26 07:18:00,
2013-06-26 01:23:00,65.2,45.0,29.88,SSW,206,12.0,12.0,48,0.00,CLR,CLR,0.00,WeatherDisplay:10.34,2013-06-26 07:23:00,
2013-06-26 01:28:00,65.5,44.7,29.88,SW,219,11.0,11.0,47,0.00,CLR,CLR,0.00,WeatherDisplay:10.34,2013-06-26 07:28:00,
2013-06-26 01:33:00,65.6,44.8,29.88,SSW,212,9.0,10.0,47,0.00,CLR,CLR,0.00,WeatherDisplay:10.34,2013-06-26 07:33:00,
2013-06-26 01:38:00,65.4,45.2,29.88,SW,218,5.0,7.0,48,0.00,CLR,CLR,0.00,WeatherDisplay:10.34,2013-06-26 07:38:00,
2013-06-26 01:43:00,65.2,45.0,29.87,SSW,205,8.0,9.0,48,0.00,CLR,CLR,0.00,WeatherDisplay:10.34,2013-06-26 07:43:00,
2013-06-26 01:48:00,65.0,44.8,29.87,SW,219,8.0,8.0,48,0.00,CLR,CLR,0.00,WeatherDisplay:10.34,2013-06-26 07:48:00,
2013-06-26 01:53:00,64.9,44.7,29.87,SW,225,6.0,6.0,48,0.00,CLR,CLR,0.00,WeatherDisplay:10.34,2013-06-26 07:53:00,
2013-06-26 01:58:00,64.8,45.2,29.87,SW,230,6.0,7.0,49,0.00,CLR,CLR,0.00,WeatherDisplay:10.34,2013-06-26 07:58:00,
2013-06-26 02:03:00,64.6,45.5,29.87,SW,230,2.0,2.0,50,0.00,CLR,CLR,0.00,WeatherDisplay:10.34,2013-06-26 08:03:00,
2013-06-26 02:08:00,64.2,45.7,29.87,SW,230,0.0,2.0,51,0.00,CLR,CLR,0.00,WeatherDisplay:10.34,2013-06-26 08:08:00,
2013-06-26 02:13:00,63.8,46.3,29.87,SW,230,0.0,0.0,53,0.00,CLR,CLR,0.00,WeatherDisplay:10.34,2013-06-26 08:13:00,
2013-06-26 02:18:00,63.4,44.9,29.86,SW,233,4.0,4.0,51,0.00,CLR,CLR,0.00,WeatherDisplay:10.34,2013-06-26 08:18:00,
2013-06-26 02:23:00,63.0,45.1,29.87,WSW,237,7.0,7.0,52,0.00,CLR,CLR,0.00,WeatherDisplay:10.34,2013-06-26 08:23:00,
2013-06-26 02:28:00,62.8,44.9,29.87,WSW,254,4.0,5.0,52,0.00,CLR,CLR,0.00,WeatherDisplay:10.34,2013-06-26 08:28:00,
2013-06-26 02:33:00,62.7,44.3,29.88,WSW,245,7.0,9.0,51,0.00,CLR,CLR,0.00,WeatherDisplay:10.34,2013-06-26 08:33:00,
2013-06-26 02:38:00,62.7,44.8,29.88,WSW,244,5.0,7.0,52,0.00,CLR,CLR,0.00,WeatherDisplay:10.34,2013-06-26 08:38:00,
2013-06-26 02:43:00,62.6,44.7,29.88,WSW,240,3.0,3.0,52,0.00,CLR,CLR,0.00,WeatherDisplay:10.34,2013-06-26 08:43:00,
2013-06-26 02:48:00,62.5,44.6,29.88,WSW,242,3.0,5.0,52,0.00,CLR,CLR,0.00,WeatherDisplay:10.34,2013-06-26 08:48:00,
2013-06-26 02:53:00,62.3,44.9,29.89,SW,234,5.0,7.0,53,0.00,CLR,CLR,0.00,WeatherDisplay:10.34,2013-06-26 08:53:00,
2013-06-26 02:58:00,62.1,44.8,29.89,WSW,248,2.0,3.0,53,0.00,CLR,CLR,0.00,WeatherDisplay:10.34,2013-06-26 08:58:00,
2013-06-26 03:03:00,62.3,44.4,29.89,West,265,6.0,7.0,52,0.00,CLR,CLR,0.00,WeatherDisplay:10.34,2013-06-26 09:03:00,
2013-06-26 03:08:00,62.9,45.0,29.89,West,263,7.0,8.0,52,0.00,CLR,CLR,0.00,WeatherDisplay:10.34,2013-06-26 09:08:00,
2013-06-26 03:13:00,63.8,45.8,29.89,WSW,252,9.0,10.0,52,0.00,CLR,CLR,0.00,WeatherDisplay:10.34,2013-06-26 09:13:00,
2013-06-26 03:18:00,64.5,46.0,29.89,SW,218,4.0,5.0,51,0.00,CLR,CLR,0.00,WeatherDisplay:10.34,2013-06-26 09:18:00,
2013-06-26 03:23:00,64.6,46.6,29.89,SW,214,5.0,5.0,52,0.00,CLR,CLR,0.00,WeatherDisplay:10.34,2013-06-26 09:23:00,
2013-06-26 03:28:00,64.5,46.0,29.89,SW,228,3.0,3.0,51,0.00,CLR,CLR,0.00,WeatherDisplay:10.34,2013-06-26 09:28:00,
2013-06-26 03:33:00,64.5,47.0,29.90,SW,227,3.0,3.0,53,0.00,CLR,CLR,0.00,WeatherDisplay:10.34,2013-06-26 09:33:00,
2013-06-26 03:38:00,64.4,46.9,29.90,SW,228,3.0,3.0,53,0.00,CLR,CLR,0.00,WeatherDisplay:10.34,2013-06-26 09:38:00,
2013-06-26 03:43:00,64.3,46.8,29.89,WSW,238,4.0,7.0,53,0.00,CLR,CLR,0.00,WeatherDisplay:10.34,2013-06-26 09:43:00,
2013-06-26 03:48:00,64.3,46.8,29.89,WSW,255,5.0,7.0,53,0.00,CLR,CLR,0.00,WeatherDisplay:10.34,2013-06-26 09:48:00,
2013-06-26 03:53:00,64.4,46.9,29.89,West,259,4.0,8.0,53,0.00,CLR,CLR,0.00,WeatherDisplay:10.34,2013-06-26 09:53:00,
2013-06-26 03:58:00,64.5,47.0,29.89,WSW,247,10.0,12.0,53,0.00,CLR,CLR,0.00,WeatherDisplay:10.34,2013-06-26 09:58:00,
2013-06-26 04:03:00,64.8,46.8,29.89,WSW,247,9.0,13.0,52,0.00,CLR,CLR,0.00,WeatherDisplay:10.34,2013-06-26 10:03:00,
2013-06-26 04:08:00,65.1,46.5,29.89,SW,234,5.0,5.0,51,0.00,CLR,CLR,0.00,WeatherDisplay:10.34,2013-06-26 10:08:00,
2013-06-26 04:13:00,65.2,46.6,29.90,WSW,255,2.0,5.0,51,0.00,CLR,CLR,0.00,WeatherDisplay:10.34,2013-06-26 10:13:00,
2013-06-26 04:18:00,65.3,46.7,29.90,WSW,249,9.0,9.0,51,0.00,CLR,CLR,0.00,WeatherDisplay:10.34,2013-06-26 10:18:00,
2013-06-26 04:23:00,65.3,46.7,29.90,WSW,244,6.0,8.0,51,0.00,CLR,CLR,0.00,WeatherDisplay:10.34,2013-06-26 10:23:00,
2013-06-26 04:28:00,65.4,46.8,29.90,WSW,240,4.0,4.0,51,0.00,CLR,CLR,0.00,WeatherDisplay:10.34,2013-06-26 10:28:00,
2013-06-26 04:33:00,65.1,47.0,29.90,SSW,210,7.0,7.0,52,0.00,CLR,CLR,0.00,WeatherDisplay:10.34,2013-06-26 10:33:00,
2013-06-26 04:38:00,64.7,47.2,29.90,SW,233,3.0,5.0,53,0.00,CLR,CLR,0.00,WeatherDisplay:10.34,2013-06-26 10:38:00,
2013-06-26 04:43:00,64.0,47.5,29.90,SSW,201,9.0,9.0,55,0.00,CLR,CLR,0.00,WeatherDisplay:10.34,2013-06-26 10:43:00,
2013-06-26 04:48:00,63.4,47.4,29.91,SSW,212,8.0,9.0,56,0.00,CLR,CLR,0.00,WeatherDisplay:10.34,2013-06-26 10:48:00,
2013-06-26 04:53:00,63.4,46.9,29.90,SW,218,6.0,7.0,55,0.00,CLR,CLR,0.00,WeatherDisplay:10.34,2013-06-26 10:53:00,
2013-06-26 04:58:00,63.6,47.1,29.91,SW,228,7.0,8.0,55,0.00,CLR,CLR,0.00,WeatherDisplay:10.34,2013-06-26 10:58:00,
2013-06-26 05:03:00,63.6,47.1,29.91,SW,218,3.0,3.0,55,0.00,OVC,OVC,0.00,WeatherDisplay:10.34,2013-06-26 11:03:00,
2013-06-26 05:08:00,63.6,46.1,29.91,WSW,246,8.0,9.0,53,0.00,OVC,OVC,0.00,WeatherDisplay:10.34,2013-06-26 11:08:00,
2013-06-26 05:13:00,64.3,45.8,29.90,West,260,9.0,13.0,51,0.00,OVC,OVC,0.00,WeatherDisplay:10.34,2013-06-26 11:13:00,
2013-06-26 05:18:00,65.1,46.0,29.90,West,263,12.0,14.0,50,0.00,OVC,OVC,0.00,WeatherDisplay:10.34,2013-06-26 11:18:00,
2013-06-26 05:23:00,65.8,46.1,29.91,West,261,8.0,12.0,49,0.00,OVC,OVC,0.00,WeatherDisplay:10.34,2013-06-26 11:23:00,
2013-06-26 05:28:00,66.1,46.4,29.91,WSW,244,4.0,8.0,49,0.00,OVC,OVC,0.00,WeatherDisplay:10.34,2013-06-26 11:28:00,
2013-06-26 05:33:00,66.3,46.0,29.91,SW,225,3.0,5.0,48,0.00,OVC,OVC,0.00,WeatherDisplay:10.34,2013-06-26 11:33:00,
2013-06-26 05:38:00,66.5,46.2,29.91,SW,214,10.0,12.0,48,0.00,OVC,OVC,0.00,WeatherDisplay:10.34,2013-06-26 11:38:00,
2013-06-26 05:43:00,66.7,46.4,29.91,WSW,254,5.0,9.0,48,0.00,OVC,OVC,0.00,WeatherDisplay:10.34,2013-06-26 11:43:00,
2013-06-26 05:48:00,66.8,46.5,29.91,WSW,240,8.0,8.0,48,0.00,BKN,BKN,0.00,WeatherDisplay:10.34,2013-06-26 11:48:00,
2013-06-26 05:53:00,66.7,47.5,29.91,SSW,210,5.0,5.0,50,0.00,BKN,BKN,0.00,WeatherDisplay:10.34,2013-06-26 11:53:00,
2013-06-26 05:58:00,66.3,47.1,29.91,SW,220,6.0,8.0,50,0.00,BKN,BKN,0.00,WeatherDisplay:10.34,2013-06-26 11:58:00,
2013-06-26 06:03:00,65.9,47.8,29.91,SSW,193,5.0,5.0,52,0.00,BKN,BKN,0.00,WeatherDisplay:10.34,2013-06-26 12:03:00,
2013-06-26 06:08:00,65.7,47.6,29.91,SSW,209,3.0,3.0,52,0.00,SCT,SCT,0.00,WeatherDisplay:10.34,2013-06-26 12:08:00,
2013-06-26 06:13:00,65.1,47.0,29.91,SW,221,5.0,7.0,52,0.00,SCT,SCT,0.00,WeatherDisplay:10.34,2013-06-26 12:13:00,
2013-06-26 06:18:00,64.8,47.3,29.91,SW,234,3.0,3.0,53,0.00,SCT,SCT,0.00,WeatherDisplay:10.34,2013-06-26 12:18:00,
2013-06-26 06:23:00,64.6,47.6,29.91,SW,235,2.0,2.0,54,0.00,SCT,SCT,0.00,WeatherDisplay:10.34,2013-06-26 12:23:00,
2013-06-26 06:28:00,64.4,47.4,29.91,SW,229,6.0,6.0,54,0.00,SCT,SCT,0.00,WeatherDisplay:10.34,2013-06-26 12:28:00,
2013-06-26 06:33:00,64.2,46.7,29.92,SW,234,5.0,5.0,53,0.00,SCT,SCT,0.00,WeatherDisplay:10.34,2013-06-26 12:33:00,
2013-06-26 06:38:00,64.4,46.4,29.92,SW,234,4.0,5.0,52,0.00,SCT,SCT,0.00,WeatherDisplay:10.34,2013-06-26 12:38:00,
2013-06-26 06:43:00,64.7,46.7,29.92,SW,236,7.0,8.0,52,0.00,BKN,BKN,0.00,WeatherDisplay:10.34,2013-06-26 12:43:00,
2013-06-26 06:48:00,65.1,47.0,29.93,SW,228,7.0,9.0,52,0.00,BKN,BKN,0.00,WeatherDisplay:10.34,2013-06-26 12:48:00,
2013-06-26 06:53:00,65.5,46.9,29.93,WSW,252,8.0,8.0,51,0.00,BKN,BKN,0.00,WeatherDisplay:10.34,2013-06-26 12:53:00,
2013-06-26 06:58:00,66.1,46.9,29.93,West,269,11.0,12.0,50,0.00,BKN,BKN,0.00,WeatherDisplay:10.34,2013-06-26 12:58:00,
2013-06-26 07:03:00,66.8,47.0,29.94,WSW,249,10.0,10.0,49,0.00,BKN,BKN,0.00,WeatherDisplay:10.34,2013-06-26 13:03:00,
2013-06-26 07:08:00,67.3,46.9,29.94,WSW,242,10.0,10.0,48,0.00,BKN,BKN,0.00,WeatherDisplay:10.34,2013-06-26 13:08:00,
2013-06-26 07:13:00,67.7,46.7,29.95,West,273,8.0,8.0,47,0.00,SCT,SCT,0.00,WeatherDisplay:10.34,2013-06-26 13:13:00,
2013-06-26 07:18:00,68.1,47.1,29.94,West,271,8.0,9.0,47,0.00,SCT,SCT,0.00,WeatherDisplay:10.34,2013-06-26 13:18:00,
2013-06-26 07:23:00,68.5,47.5,29.94,WSW,245,6.0,8.0,47,0.00,SCT,SCT,0.00,WeatherDisplay:10.34,2013-06-26 13:23:00,
2013-06-26 07:28:00,68.6,48.7,29.94,West,265,2.0,3.0,49,0.00,SCT,SCT,0.00,WeatherDisplay:10.34,2013-06-26 13:28:00,
2013-06-26 07:33:00,68.3,48.9,29.95,West,280,4.0,5.0,50,0.00,SCT,SCT,0.00,WeatherDisplay:10.34,2013-06-26 13:33:00,
2013-06-26 07:38:00,67.5,49.3,29.95,NW,311,6.0,8.0,52,0.00,SCT,SCT,0.00,WeatherDisplay:10.34,2013-06-26 13:38:00,
2013-06-26 07:43:00,67.1,49.9,29.94,West,275,2.0,3.0,54,0.00,SCT,SCT,0.00,WeatherDisplay:10.34,2013-06-26 13:43:00,
2013-06-26 07:48:00,67.2,48.5,29.94,WSW,238,4.0,5.0,51,0.00,FEW,FEW,0.00,WeatherDisplay:10.34,2013-06-26 13:48:00,
2013-06-26 07:53:00,67.4,50.2,29.94,WNW,288,1.0,2.0,54,0.00,SCT,SCT,0.00,WeatherDisplay:10.34,2013-06-26 13:53:00,
2013-06-26 07:58:00,67.6,49.3,29.94,WNW,287,2.0,3.0,52,0.00,SCT,SCT,0.00,WeatherDisplay:10.34,2013-06-26 13:58:00,
2013-06-26 08:03:00,67.8,49.5,29.95,WNW,288,1.0,1.0,52,0.00,SCT,SCT,0.00,WeatherDisplay:10.34,2013-06-26 14:03:00,
2013-06-26 08:09:00,68.0,51.2,29.95,WNW,288,1.0,3.0,55,0.00,BKN,BKN,0.00,WeatherDisplay:10.34,2013-06-26 14:09:00,
2013-06-26 08:14:00,68.2,50.4,29.95,WNW,288,0.0,1.0,53,0.00,BKN,BKN,0.00,WeatherDisplay:10.34,2013-06-26 14:14:00,
2013-06-26 08:19:00,68.5,51.7,29.96,WNW,288,2.0,2.0,55,0.00,SCT,SCT,0.00,WeatherDisplay:10.34,2013-06-26 14:19:00,
2013-06-26 08:24:00,68.8,52.9,29.96,WNW,288,0.0,1.0,57,0.00,FEW,FEW,0.00,WeatherDisplay:10.34,2013-06-26 14:24:00,
2013-06-26 08:29:00,69.0,51.7,29.96,WNW,288,2.0,2.0,54,0.00,BKN,BKN,0.00,WeatherDisplay:10.34,2013-06-26 14:29:00,
2013-06-26 08:34:00,69.2,50.8,29.96,WNW,288,0.0,0.0,52,0.00,SCT,SCT,0.00,WeatherDisplay:10.34,2013-06-26 14:34:00,
2013-06-26 08:39:00,69.4,51.0,29.96,WNW,288,0.0,2.0,52,0.00,FEW,FEW,0.00,WeatherDisplay:10.34,2013-06-26 14:39:00,
2013-06-26 08:44:00,69.7,49.7,29.96,WNW,288,1.0,1.0,49,0.00,BKN,BKN,0.00,WeatherDisplay:10.34,2013-06-26 14:44:00,
2013-06-26 08:49:00,70.0,50.0,29.96,WSW,244,4.0,4.0,49,0.00,FEW,FEW,0.00,WeatherDisplay:10.34,2013-06-26 14:49:00,
2013-06-26 08:54:00,70.3,49.1,29.96,WSW,244,2.0,2.0,47,0.00,SCT,SCT,0.00,WeatherDisplay:10.34,2013-06-26 14:54:00,
2013-06-26 08:59:00,70.6,50.5,29.96,WSW,244,5.0,5.0,49,0.00,BKN,BKN,0.00,WeatherDisplay:10.34,2013-06-26 14:59:00,
2013-06-26 09:04:00,71.0,50.3,29.96,WSW,244,3.0,3.0,48,0.00,BKN,BKN,0.00,WeatherDisplay:10.34,2013-06-26 15:04:00,
2013-06-26 09:09:00,71.3,51.1,29.96,WSW,244,3.0,3.0,49,0.00,SCT,SCT,0.00,WeatherDisplay:10.34,2013-06-26 15:09:00,
2013-06-26 09:14:00,71.6,50.3,29.96,SW,228,2.0,3.0,47,0.00,SCT,SCT,0.00,WeatherDisplay:10.34,2013-06-26 15:14:00,
2013-06-26 09:19:00,72.1,51.3,29.96,SSW,211,4.0,4.0,48,0.00,CLR,CLR,0.00,WeatherDisplay:10.34,2013-06-26 15:19:00,
2013-06-26 09:24:00,72.5,50.5,29.96,SW,214,2.0,2.0,46,0.00,CLR,CLR,0.00,WeatherDisplay:10.34,2013-06-26 15:24:00,
2013-06-26 09:29:00,72.8,50.8,29.96,SW,216,0.0,1.0,46,0.00,CLR,CLR,0.00,WeatherDisplay:10.34,2013-06-26 15:29:00,
2013-06-26 09:34:00,73.2,51.2,29.96,West,271,5.0,7.0,46,0.00,CLR,CLR,0.00,WeatherDisplay:10.34,2013-06-26 15:34:00,
2013-06-26 09:39:00,74.0,51.3,29.96,West,271,0.0,0.0,45,0.00,CLR,CLR,0.00,WeatherDisplay:10.34,2013-06-26 15:39:00,
2013-06-26 09:44:00,74.9,51.5,29.96,WNW,284,6.0,7.0,44,0.00,CLR,CLR,0.00,WeatherDisplay:10.34,2013-06-26 15:44:00,
2013-06-26 09:49:00,75.6,49.6,29.96,ENE,66,1.0,1.0,40,0.00,FEW,FEW,0.00,WeatherDisplay:10.34,2013-06-26 15:49:00,
2013-06-26 09:54:00,76.4,51.6,29.96,NW,320,1.0,1.0,42,0.00,CLR,CLR,0.00,WeatherDisplay:10.34,2013-06-26 15:54:00,
2013-06-26 09:59:00,77.1,51.6,29.96,West,267,2.0,3.0,41,0.00,CLR,CLR,0.00,WeatherDisplay:10.34,2013-06-26 15:59:00,
2013-06-26 10:04:00,77.7,50.1,29.96,West,272,2.0,3.0,38,0.00,CLR,CLR,0.00,WeatherDisplay:10.34,2013-06-26 16:04:00,
2013-06-26 10:09:00,78.3,52.0,29.96,WNW,291,5.0,5.0,40,0.00,CLR,CLR,0.00,WeatherDisplay:10.34,2013-06-26 16:09:00,
2013-06-26 10:14:00,78.7,51.7,29.96,West,261,4.0,5.0,39,0.00,CLR,CLR,0.00,WeatherDisplay:10.34,2013-06-26 16:14:00,
2013-06-26 10:19:00,79.0,49.8,29.96,WSW,238,7.0,7.0,36,0.00,CLR,CLR,0.00,WeatherDisplay:10.34,2013-06-26 16:19:00,
2013-06-26 10:24:00,79.3,50.8,29.96,West,261,6.0,8.0,37,0.00,CLR,CLR,0.00,WeatherDisplay:10.34,2013-06-26 16:24:00,
2013-06-26 10:29:00,79.3,49.3,29.96,SW,217,4.0,9.0,35,0.00,CLR,CLR,0.00,WeatherDisplay:10.34,2013-06-26 16:29:00,
2013-06-26 10:34:00,79.3,49.3,29.96,SSW,205,1.0,2.0,35,0.00,CLR,CLR,0.00,WeatherDisplay:10.34,2013-06-26 16:34:00,
2013-06-26 10:39:00,79.2,48.4,29.96,SSE,151,2.0,2.0,34,0.00,CLR,CLR,0.00,WeatherDisplay:10.34,2013-06-26 16:39:00,
2013-06-26 10:44:00,79.7,51.8,29.96,WNW,294,4.0,4.0,38,0.00,FEW,FEW,0.00,WeatherDisplay:10.34,2013-06-26 16:44:00,
2013-06-26 10:49:00,80.0,49.9,29.96,SW,234,5.0,5.0,35,0.00,CLR,CLR,0.00,WeatherDisplay:10.34,2013-06-26 16:49:00,
2013-06-26 10:54:00,80.1,51.5,29.96,SSW,211,3.0,3.0,37,0.00,CLR,CLR,0.00,WeatherDisplay:10.34,2013-06-26 16:54:00,
2013-06-26 10:59:00,80.3,49.4,29.96,SSW,192,1.0,3.0,34,0.00,FEW,FEW,0.00,WeatherDisplay:10.34,2013-06-26 16:59:00,
2013-06-26 11:04:00,80.2,50.8,29.97,West,263,6.0,8.0,36,0.00,CLR,CLR,0.00,WeatherDisplay:10.34,2013-06-26 17:04:00,
2013-06-26 11:09:00,80.6,50.4,29.97,SSW,192,8.0,8.0,35,0.00,CLR,CLR,0.00,WeatherDisplay:10.34,2013-06-26 17:09:00,
2013-06-26 11:14:00,80.9,50.7,29.96,West,259,3.0,3.0,35,0.00,CLR,CLR,0.00,WeatherDisplay:10.34,2013-06-26 17:14:00,
2013-06-26 11:19:00,81.2,50.2,29.96,SW,215,6.0,8.0,34,0.00,CLR,CLR,0.00,WeatherDisplay:10.34,2013-06-26 17:19:00,
2013-06-26 11:24:00,81.4,50.3,29.96,SE,134,4.0,4.0,34,0.00,CLR,CLR,0.00,WeatherDisplay:10.34,2013-06-26 17:24:00,
2013-06-26 11:29:00,81.5,51.2,29.96,WSW,256,4.0,5.0,35,0.00,CLR,CLR,0.00,WeatherDisplay:10.34,2013-06-26 17:29:00,
2013-06-26 11:34:00,81.5,49.6,29.96,SSE,165,4.0,5.0,33,0.00,CLR,CLR,0.00,WeatherDisplay:10.34,2013-06-26 17:34:00,
2013-06-26 11:39:00,81.2,50.9,29.96,SSW,205,9.0,12.0,35,0.00,CLR,CLR,0.00,WeatherDisplay:10.34,2013-06-26 17:39:00,
2013-06-26 11:44:00,81.2,50.9,29.96,SW,218,9.0,10.0,35,0.00,OVC,OVC,0.00,WeatherDisplay:10.34,2013-06-26 17:44:00,
2013-06-26 11:49:00,81.5,52.0,29.96,SW,226,5.0,5.0,36,0.00,CLR,CLR,0.00,WeatherDisplay:10.34,2013-06-26 17:49:00,
2013-06-26 11:54:00,81.8,49.9,29.96,WSW,243,7.0,7.0,33,0.00,CLR,CLR,0.00,WeatherDisplay:10.34,2013-06-26 17:54:00,
2013-06-26 11:59:00,82.4,49.6,29.96,SSW,202,9.0,9.0,32,0.00,CLR,CLR,0.00,WeatherDisplay:10.34,2013-06-26 17:59:00,
2013-06-26 12:04:00,82.7,49.0,29.96,SSW,207,9.0,12.0,31,0.00,CLR,CLR,0.00,WeatherDisplay:10.34,2013-06-26 18:04:00,
2013-06-26 12:10:00,82.9,50.0,29.95,SSW,200,10.0,10.0,32,0.00,CLR,CLR,0.00,WeatherDisplay:10.34,2013-06-26 18:10:00,
2013-06-26 12:15:00,82.9,50.8,29.95,South,173,0.0,0.0,33,0.00,OVC,OVC,0.00,WeatherDisplay:10.34,2013-06-26 18:15:00,
2013-06-26 12:20:00,82.7,49.8,29.95,SE,136,9.0,9.0,32,0.00,OVC,OVC,0.00,WeatherDisplay:10.34,2013-06-26 18:20:00,
2013-06-26 12:25:00,82.4,52.0,29.95,SW,215,6.0,7.0,35,0.00,CLR,CLR,0.00,WeatherDisplay:10.34,2013-06-26 18:25:00,
2013-06-26 12:30:00,82.7,50.7,29.95,SSW,194,3.0,5.0,33,0.00,CLR,CLR,0.00,WeatherDisplay:10.34,2013-06-26 18:30:00,
2013-06-26 12:35:00,83.3,49.5,29.94,East,86,6.0,8.0,31,0.00,CLR,CLR,0.00,WeatherDisplay:10.34,2013-06-26 18:35:00,
2013-06-26 12:40:00,83.9,51.7,29.95,NE,36,1.0,2.0,33,0.00,CLR,CLR,0.00,WeatherDisplay:10.34,2013-06-26 18:40:00,
2013-06-26 12:45:00,84.6,52.3,29.95,SW,217,6.0,7.0,33,0.00,CLR,CLR,0.00,WeatherDisplay:10.34,2013-06-26 18:45:00,
2013-06-26 12:50:00,84.4,51.3,29.94,SE,145,6.0,6.0,32,0.00,CLR,CLR,0.00,WeatherDisplay:10.34,2013-06-26 18:50:00,
2013-06-26 12:55:00,84.1,51.1,29.94,SE,127,1.0,3.0,32,0.00,CLR,CLR,0.00,WeatherDisplay:10.34,2013-06-26 18:55:00,
2013-06-26 13:00:00,84.7,50.7,29.94,South,177,5.0,5.0,31,0.00,CLR,CLR,0.00,WeatherDisplay:10.34,2013-06-26 19:00:00,
2013-06-26 13:05:00,84.8,49.9,29.94,WSW,238,5.0,7.0,30,0.00,BKN,BKN,0.00,WeatherDisplay:10.34,2013-06-26 19:05:00,
2013-06-26 13:10:00,84.7,48.9,29.94,SW,234,1.0,2.0,29,0.00,OVC,OVC,0.00,WeatherDisplay:10.34,2013-06-26 19:10:00,
2013-06-26 13:15:00,84.1,49.3,29.94,South,186,5.0,5.0,30,0.00,OVC,OVC,0.00,WeatherDisplay:10.34,2013-06-26 19:15:00,
2013-06-26 13:20:00,84.4,53.0,29.94,SSW,192,2.0,8.0,34,0.00,CLR,CLR,0.00,WeatherDisplay:10.34,2013-06-26 19:20:00,
2013-06-26 13:25:00,84.7,49.8,29.94,SE,132,9.0,12.0,30,0.00,BKN,BKN,0.00,WeatherDisplay:10.34,2013-06-26 19:25:00,
2013-06-26 13:30:00,85.0,50.1,29.94,East,99,3.0,3.0,30,0.00,CLR,CLR,0.00,WeatherDisplay:10.34,2013-06-26 19:30:00,
2013-06-26 13:35:00,85.5,50.5,29.94,SE,146,3.0,3.0,30,0.00,CLR,CLR,0.00,WeatherDisplay:10.34,2013-06-26 19:35:00,
2013-06-26 13:40:00,85.6,52.4,29.94,West,267,3.0,7.0,32,0.00,BKN,BKN,0.00,WeatherDisplay:10.34,2013-06-26 19:40:00,
2013-06-26 13:45:00,84.8,54.1,29.94,North,355,6.0,9.0,35,0.00,BKN,BKN,0.00,WeatherDisplay:10.34,2013-06-26 19:45:00,
2013-06-26 13:50:00,83.6,53.8,29.94,NNW,327,3.0,3.0,36,0.00,OVC,OVC,0.00,WeatherDisplay:10.34,2013-06-26 19:50:00,
2013-06-26 13:55:00,82.7,51.5,29.94,NW,321,4.0,4.0,34,0.00,OVC,OVC,0.00,WeatherDisplay:10.34,2013-06-26 19:55:00,
2013-06-26 14:00:00,82.6,49.7,29.94,SE,128,4.0,7.0,32,0.00,OVC,OVC,0.00,WeatherDisplay:10.34,2013-06-26 20:00:00,
2013-06-26 14:05:00,83.0,50.1,29.94,West,268,1.0,3.0,32,0.00,OVC,OVC,0.00,WeatherDisplay:10.34,2013-06-26 20:05:00,
2013-06-26 14:10:00,83.0,50.1,29.94,WSW,241,6.0,7.0,32,0.00,OVC,OVC,0.00,WeatherDisplay:10.34,2013-06-26 20:10:00,
2013-06-26 14:15:00,83.2,48.5,29.94,SW,227,1.0,7.0,30,0.00,OVC,OVC,0.00,WeatherDisplay:10.34,2013-06-26 20:15:00,
2013-06-26 14:20:00,83.6,48.0,29.93,SW,215,9.0,10.0,29,0.00,OVC,OVC,0.00,WeatherDisplay:10.34,2013-06-26 20:20:00,
2013-06-26 14:25:00,83.5,47.0,29.93,SW,225,11.0,12.0,28,0.00,OVC,OVC,0.00,WeatherDisplay:10.34,2013-06-26 20:25:00,
2013-06-26 14:30:00,83.9,49.1,29.93,SW,232,9.0,9.0,30,0.00,BKN,BKN,0.00,WeatherDisplay:10.34,2013-06-26 20:30:00,
2013-06-26 14:35:00,84.7,48.9,29.94,WSW,253,15.0,15.0,29,0.00,CLR,CLR,0.00,WeatherDisplay:10.34,2013-06-26 20:35:00,
2013-06-26 14:40:00,85.0,45.2,29.94,WSW,240,8.0,9.0,25,0.00,OVC,OVC,0.00,WeatherDisplay:10.34,2013-06-26 20:40:00,
2013-06-26 14:45:00,84.9,47.2,29.94,SW,232,16.0,16.0,27,0.00,BKN,BKN,0.00,WeatherDisplay:10.34,2013-06-26 20:45:00,
2013-06-26 14:50:00,84.8,46.1,29.93,West,273,9.0,9.0,26,0.00,OVC,OVC,0.00,WeatherDisplay:10.34,2013-06-26 20:50:00,
2013-06-26 14:55:00,84.6,46.9,29.93,SSW,205,10.0,10.0,27,0.00,OVC,OVC,0.00,WeatherDisplay:10.34,2013-06-26 20:55:00,
2013-06-26 15:00:00,84.1,45.5,29.94,SW,232,12.0,12.0,26,0.00,OVC,OVC,0.00,WeatherDisplay:10.34,2013-06-26 21:00:00,
2013-06-26 15:02:00,83.8,46.2,29.94,WSW,238,13.0,17.0,27,0.00,OVC,OVC,0.00,WeatherDisplay:10.34,2013-06-26 21:02:00,
2013-06-26 15:07:00,83.4,43.9,29.94,SW,230,8.0,9.0,25,0.00,OVC,OVC,0.00,WeatherDisplay:10.34,2013-06-26 21:07:00,
2013-06-26 15:12:00,83.8,47.2,29.94,SW,217,18.0,23.0,28,0.00,CLR,CLR,0.00,WeatherDisplay:10.34,2013-06-26 21:12:00,
2013-06-26 15:17:00,85.0,46.3,29.94,SW,217,9.0,13.0,26,0.00,CLR,CLR,0.00,WeatherDisplay:10.34,2013-06-26 21:17:00,
2013-06-26 15:22:00,85.7,46.9,29.94,WSW,244,14.0,15.0,26,0.00,CLR,CLR,0.00,WeatherDisplay:10.34,2013-06-26 21:22:00,
2013-06-26 15:27:00,86.2,47.3,29.94,WSW,253,5.0,7.0,26,0.00,CLR,CLR,0.00,WeatherDisplay:10.34,2013-06-26 21:27:00,
2013-06-26 15:32:00,86.6,48.6,29.94,SW,223,11.0,14.0,27,0.00,CLR,CLR,0.00,WeatherDisplay:10.34,2013-06-26 21:32:00,
2013-06-26 15:37:00,87.1,48.1,29.94,WSW,241,9.0,10.0,26,0.00,SCT,SCT,0.00,WeatherDisplay:10.34,2013-06-26 21:37:00,
2013-06-26 15:42:00,87.1,47.0,29.93,SW,218,12.0,14.0,25,0.00,CLR,CLR,0.00,WeatherDisplay:10.34,2013-06-26 21:42:00,
2013-06-26 15:47:00,87.1,45.9,29.93,WSW,246,14.0,22.0,24,0.00,CLR,CLR,0.00,WeatherDisplay:10.34,2013-06-26 21:47:00,
2013-06-26 15:52:00,86.8,44.6,29.93,WSW,250,12.0,15.0,23,0.00,OVC,OVC,0.00,WeatherDisplay:10.34,2013-06-26 21:52:00,
2013-06-26 15:57:00,86.3,46.3,29.93,SSW,210,6.0,8.0,25,0.00,BKN,BKN,0.00,WeatherDisplay:10.34,2013-06-26 21:57:00,
2013-06-26 16:02:00,86.9,46.8,29.93,SSW,213,10.0,12.0,25,0.00,CLR,CLR,0.00,WeatherDisplay:10.34,2013-06-26 22:02:00,
2013-06-26 16:07:00,87.1,47.0,29.93,WSW,244,8.0,8.0,25,0.00,OVC,OVC,0.00,WeatherDisplay:10.34,2013-06-26 22:07:00,
2013-06-26 16:12:00,86.4,45.3,29.93,SW,227,6.0,7.0,24,0.00,OVC,OVC,0.00,WeatherDisplay:10.34,2013-06-26 22:12:00,
2013-06-26 16:17:00,86.1,46.2,29.93,SW,215,11.0,16.0,25,0.00,FEW,FEW,0.00,WeatherDisplay:10.34,2013-06-26 22:17:00,
2013-06-26 16:22:00,85.5,45.7,29.93,WSW,241,15.0,15.0,25,0.00,BKN,BKN,0.00,WeatherDisplay:10.34,2013-06-26 22:22:00,
2013-06-26 16:27:00,85.1,45.3,29.93,WSW,242,7.0,8.0,25,0.00,SCT,SCT,0.00,WeatherDisplay:10.34,2013-06-26 22:27:00,
2013-06-26 16:32:00,85.2,45.4,29.94,SW,232,7.0,12.0,25,0.00,CLR,CLR,0.00,WeatherDisplay:10.34,2013-06-26 22:32:00,
2013-06-26 16:37:00,85.8,48.9,29.94,WSW,257,8.0,13.0,28,0.00,CLR,CLR,0.00,WeatherDisplay:10.34,2013-06-26 22:37:00,
2013-06-26 16:42:00,86.3,46.3,29.94,SSW,199,13.0,13.0,25,0.00,CLR,CLR,0.00,WeatherDisplay:10.34,2013-06-26 22:42:00,
2013-06-26 16:47:00,86.6,46.6,29.94,WSW,255,6.0,8.0,25,0.00,CLR,CLR,0.00,WeatherDisplay:10.34,2013-06-26 22:47:00,
2013-06-26 16:52:00,86.8,47.8,29.93,SW,226,4.0,5.0,26,0.00,CLR,CLR,0.00,WeatherDisplay:10.34,2013-06-26 22:52:00,
2013-06-26 16:57:00,87.1,47.0,29.94,WSW,256,12.0,14.0,25,0.00,CLR,CLR,0.00,WeatherDisplay:10.34,2013-06-26 22:57:00,
2013-06-26 17:02:00,87.0,45.8,29.94,SW,231,16.0,16.0,24,0.00,CLR,CLR,0.00,WeatherDisplay:10.34,2013-06-26 23:02:00,
2013-06-26 17:07:00,86.9,45.8,29.94,SW,222,13.0,16.0,24,0.00,CLR,CLR,0.00,WeatherDisplay:10.34,2013-06-26 23:07:00,
2013-06-26 17:12:00,86.7,46.7,29.93,West,273,7.0,8.0,25,0.00,CLR,CLR,0.00,WeatherDisplay:10.34,2013-06-26 23:12:00,
2013-06-26 17:17:00,86.6,47.6,29.93,SW,234,11.0,13.0,26,0.00,CLR,CLR,0.00,WeatherDisplay:10.34,2013-06-26 23:17:00,
2013-06-26 17:22:00,86.5,47.5,29.94,West,269,13.0,15.0,26,0.00,CLR,CLR,0.00,WeatherDisplay:10.34,2013-06-26 23:22:00,
2013-06-26 17:27:00,86.2,48.3,29.94,WSW,238,11.0,14.0,27,0.00,CLR,CLR,0.00,WeatherDisplay:10.34,2013-06-26 23:27:00,
2013-06-26 17:32:00,86.3,47.4,29.94,SW,215,11.0,16.0,26,0.00,CLR,CLR,0.00,WeatherDisplay:10.34,2013-06-26 23:32:00,
2013-06-26 17:37:00,86.3,45.3,29.94,WSW,249,14.0,15.0,24,0.00,CLR,CLR,0.00,WeatherDisplay:10.34,2013-06-26 23:37:00,
2013-06-26 17:42:00,86.2,46.2,29.94,WSW,249,15.0,15.0,25,0.00,CLR,CLR,0.00,WeatherDisplay:10.34,2013-06-26 23:42:00,
2013-06-26 17:47:00,86.1,47.2,29.94,WSW,246,13.0,15.0,26,0.00,FEW,FEW,0.00,WeatherDisplay:10.34,2013-06-26 23:47:00,
2013-06-26 17:52:00,85.8,45.9,29.94,WSW,237,9.0,14.0,25,0.00,CLR,CLR,0.00,WeatherDisplay:10.34,2013-06-26 23:52:00,
2013-06-26 17:57:00,85.5,46.7,29.94,WSW,240,12.0,14.0,26,0.00,FEW,FEW,0.00,WeatherDisplay:10.34,2013-06-26 23:57:00,
2013-06-26 18:02:00,85.4,48.6,29.94,SW,232,8.0,8.0,28,0.00,CLR,CLR,0.00,WeatherDisplay:10.34,2013-06-27 00:02:00,
2013-06-26 18:07:00,85.4,45.6,29.94,West,274,7.0,8.0,25,0.00,FEW,FEW,0.00,WeatherDisplay:10.34,2013-06-27 00:07:00,
2013-06-26 18:12:00,85.2,46.4,29.94,WSW,240,13.0,14.0,26,0.00,CLR,CLR,0.00,WeatherDisplay:10.34,2013-06-27 00:12:00,
2013-06-26 18:17:00,85.1,45.3,29.93,West,259,12.0,15.0,25,0.00,CLR,CLR,0.00,WeatherDisplay:10.34,2013-06-27 00:17:00,
2013-06-26 18:22:00,85.1,46.4,29.93,West,280,8.0,10.0,26,0.00,CLR,CLR,0.00,WeatherDisplay:10.34,2013-06-27 00:22:00,
2013-06-26 18:27:00,84.8,46.1,29.93,West,272,15.0,15.0,26,0.00,BKN,BKN,0.00,WeatherDisplay:10.34,2013-06-27 00:27:00,
2013-06-26 18:32:00,84.3,45.7,29.94,WSW,237,8.0,12.0,26,0.00,CLR,CLR,0.00,WeatherDisplay:10.34,2013-06-27 00:32:00,
2013-06-26 18:37:00,84.3,47.6,29.94,SW,216,12.0,14.0,28,0.00,CLR,CLR,0.00,WeatherDisplay:10.34,2013-06-27 00:37:00,
2013-06-26 18:42:00,84.4,46.8,29.94,SSW,213,8.0,12.0,27,0.00,CLR,CLR,0.00,WeatherDisplay:10.34,2013-06-27 00:42:00,
2013-06-26 18:47:00,84.4,46.8,29.94,SW,215,10.0,10.0,27,0.00,FEW,FEW,0.00,WeatherDisplay:10.34,2013-06-27 00:47:00,
2013-06-26 18:52:00,84.4,45.8,29.94,SW,230,11.0,13.0,26,0.00,CLR,CLR,0.00,WeatherDisplay:10.34,2013-06-27 00:52:00,
2013-06-26 18:57:00,84.2,46.6,29.94,WSW,254,13.0,13.0,27,0.00,CLR,CLR,0.00,WeatherDisplay:10.34,2013-06-27 00:57:00,
2013-06-26 19:02:00,84.1,47.5,29.95,WSW,240,8.0,8.0,28,0.00,CLR,CLR,0.00,WeatherDisplay:10.34,2013-06-27 01:02:00,
2013-06-26 19:07:00,84.1,46.5,29.95,WSW,242,12.0,14.0,27,0.00,CLR,CLR,0.00,WeatherDisplay:10.34,2013-06-27 01:07:00,
2013-06-26 19:12:00,83.9,45.3,29.95,WSW,248,11.0,11.0,26,0.00,FEW,FEW,0.00,WeatherDisplay:10.34,2013-06-27 01:12:00,
2013-06-26 19:17:00,83.7,46.2,29.95,SW,229,7.0,9.0,27,0.00,SCT,SCT,0.00,WeatherDisplay:10.34,2013-06-27 01:17:00,
2013-06-26 19:22:00,83.5,46.0,29.95,WSW,256,9.0,9.0,27,0.00,FEW,FEW,0.00,WeatherDisplay:10.34,2013-06-27 01:22:00,
2013-06-26 19:27:00,83.3,47.7,29.95,SW,218,10.0,10.0,29,0.00,CLR,CLR,0.00,WeatherDisplay:10.34,2013-06-27 01:27:00,
2013-06-26 19:32:00,83.1,47.5,29.95,WSW,253,6.0,7.0,29,0.00,CLR,CLR,0.00,WeatherDisplay:10.34,2013-06-27 01:32:00,
2013-06-26 19:38:00,83.1,47.5,29.96,WSW,248,2.0,3.0,29,0.00,CLR,CLR,0.00,WeatherDisplay:10.34,2013-06-27 01:38:00,
2013-06-26 19:43:00,83.2,46.7,29.96,WSW,250,6.0,8.0,28,0.00,CLR,CLR,0.00,WeatherDisplay:10.34,2013-06-27 01:43:00,
2013-06-26 19:48:00,83.2,46.7,29.95,SW,229,4.0,7.0,28,0.00,CLR,CLR,0.00,WeatherDisplay:10.34,2013-06-27 01:48:00,
2013-06-26 19:53:00,83.1,47.5,29.96,West,261,5.0,8.0,29,0.00,CLR,CLR,0.00,WeatherDisplay:10.34,2013-06-27 01:53:00,
2013-06-26 19:58:00,82.6,46.2,29.96,SW,227,8.0,9.0,28,0.00,CLR,CLR,0.00,WeatherDisplay:10.34,2013-06-27 01:58:00,
2013-06-26 20:03:00,82.0,45.7,29.96,SW,232,5.0,5.0,28,0.00,OVC,OVC,0.00,WeatherDisplay:10.34,2013-06-27 02:03:00,
2013-06-26 20:08:00,81.2,45.0,29.96,WSW,242,6.0,9.0,28,0.00,OVC,OVC,0.00,WeatherDisplay:10.34,2013-06-27 02:08:00,
2013-06-26 20:13:00,80.5,45.3,29.97,WSW,237,7.0,9.0,29,0.00,OVC,OVC,0.00,WeatherDisplay:10.34,2013-06-27 02:13:00,
2013-06-26 20:18:00,79.9,44.8,29.97,WSW,245,5.0,5.0,29,0.00,OVC,OVC,0.00,WeatherDisplay:10.34,2013-06-27 02:18:00,
2013-06-26 20:23:00,79.3,45.2,29.97,West,275,5.0,7.0,30,0.00,OVC,OVC,0.00,WeatherDisplay:10.34,2013-06-27 02:23:00,
2013-06-26 20:28:00,78.6,46.3,29.97,West,277,11.0,13.0,32,0.00,OVC,OVC,0.00,WeatherDisplay:10.34,2013-06-27 02:28:00,
2013-06-26 20:33:00,78.1,47.4,29.97,WSW,253,7.0,9.0,34,0.00,OVC,OVC,0.00,WeatherDisplay:10.34,2013-06-27 02:33:00,
2013-06-26 20:38:00,77.6,47.8,29.98,NNW,327,9.0,12.0,35,0.00,OVC,OVC,0.00,WeatherDisplay:10.34,2013-06-27 02:38:00,
2013-06-26 20:43:00,77.0,48.0,29.98,WNW,291,9.0,12.0,36,0.00,BKN,BKN,0.00,WeatherDisplay:10.34,2013-06-27 02:43:00,
2013-06-26 20:48:00,76.5,47.6,29.98,West,280,6.0,9.0,36,0.00,BKN,BKN,0.00,WeatherDisplay:10.34,2013-06-27 02:48:00,
2013-06-26 20:53:00,76.1,47.9,29.98,West,265,5.0,7.0,37,0.00,SCT,SCT,0.00,WeatherDisplay:10.34,2013-06-27 02:53:00,
2013-06-26 20:58:00,75.7,48.3,29.98,WNW,288,7.0,9.0,38,0.00,CLR,CLR,0.00,WeatherDisplay:10.34,2013-06-27 02:58:00,
2013-06-26 21:03:00,75.2,48.5,30.00,WNW,290,2.0,3.0,39,0.00,OVC,OVC,0.00,WeatherDisplay:10.34,2013-06-27 03:03:00,
2013-06-26 21:08:00,74.6,48.7,29.99,WNW,292,1.0,1.0,40,0.00,OVC,OVC,0.00,WeatherDisplay:10.34,2013-06-27 03:08:00,
2013-06-26 21:13:00,74.1,48.9,30.00,WNW,291,6.0,7.0,41,0.00,OVC,OVC,0.00,WeatherDisplay:10.34,2013-06-27 03:13:00,
2013-06-26 21:18:00,73.7,48.5,30.00,WNW,292,3.0,5.0,41,0.00,OVC,OVC,0.00,WeatherDisplay:10.34,2013-06-27 03:18:00,
2013-06-26 21:23:00,73.1,48.6,30.00,WNW,290,2.0,5.0,42,0.00,OVC,OVC,0.00,WeatherDisplay:10.34,2013-06-27 03:23:00,
2013-06-26 21:28:00,72.6,48.8,30.00,West,273,3.0,7.0,43,0.00,OVC,OVC,0.00,WeatherDisplay:10.34,2013-06-27 03:28:00,
2013-06-26 21:33:00,72.2,48.5,30.01,West,271,2.0,3.0,43,0.00,OVC,OVC,0.00,WeatherDisplay:10.34,2013-06-27 03:33:00,
2013-06-26 21:38:00,71.9,48.2,30.01,West,280,1.0,2.0,43,0.00,OVC,OVC,0.00,WeatherDisplay:10.34,2013-06-27 03:38:00,
2013-06-26 21:43:00,71.7,48.0,30.01,WSW,244,4.0,5.0,43,0.00,OVC,OVC,0.00,WeatherDisplay:10.34,2013-06-27 03:43:00,
2013-06-26 21:48:00,71.5,48.4,30.01,WSW,244,1.0,1.0,44,0.00,OVC,OVC,0.00,WeatherDisplay:10.34,2013-06-27 03:48:00,
2013-06-26 21:53:00,71.3,48.3,30.02,WSW,244,2.0,2.0,44,0.00,OVC,OVC,0.00,WeatherDisplay:10.34,2013-06-27 03:53:00,
2013-06-26 21:58:00,71.2,48.2,30.02,WSW,244,0.0,0.0,44,0.00,OVC,OVC,0.00,WeatherDisplay:10.34,2013-06-27 03:58:00,
2013-06-26 22:01:00,71.1,48.7,30.02,WSW,244,0.0,0.0,45,0.00,,,0.00,WeatherDisplay:10.34,2013-06-27 04:01:00,
2013-06-26 22:02:00,71.1,48.1,30.02,WSW,244,0.0,0.0,44,0.00,,,0.00,WeatherDisplay:10.34,2013-06-27 04:02:00,
2013-06-26 22:03:00,71.0,48.0,30.02,WSW,244,1.0,2.0,44,0.00,,,0.00,WeatherDisplay:10.34,2013-06-27 04:03:00,
2013-06-26 22:04:00,70.9,47.9,30.02,WSW,244,1.0,1.0,44,0.00,,,0.00,WeatherDisplay:10.34,2013-06-27 04:04:00,
2013-06-26 22:09:00,70.5,47.5,30.03,WNW,283,3.0,3.0,44,0.00,,,0.00,WeatherDisplay:10.34,2013-06-27 04:09:00,
2013-06-26 22:14:00,70.3,47.3,30.03,WNW,283,1.0,1.0,44,0.00,,,0.00,WeatherDisplay:10.34,2013-06-27 04:14:00,
2013-06-26 22:19:00,69.8,48.1,30.03,SSW,211,3.0,3.0,46,0.00,,,0.00,WeatherDisplay:10.34,2013-06-27 04:19:00,
2013-06-26 22:24:00,69.1,48.6,30.04,SE,141,6.0,6.0,48,0.00,,,0.00,WeatherDisplay:10.34,2013-06-27 04:24:00,
2013-06-26 22:29:00,68.3,47.8,30.04,West,277,5.0,5.0,48,0.00,,,0.00,WeatherDisplay:10.34,2013-06-27 04:29:00,
2013-06-26 22:34:00,68.2,46.6,30.05,West,275,3.0,3.0,46,0.00,,,0.00,WeatherDisplay:10.34,2013-06-27 04:34:00,
2013-06-26 22:39:00,68.3,46.7,30.05,WNW,298,1.0,1.0,46,0.00,,,0.00,WeatherDisplay:10.34,2013-06-27 04:39:00,
2013-06-26 22:44:00,68.6,46.4,30.05,West,275,4.0,4.0,45,0.00,,,0.00,WeatherDisplay:10.34,2013-06-27 04:44:00,
2013-06-26 22:49:00,68.7,46.5,30.05,West,275,1.0,1.0,45,0.00,,,0.00,WeatherDisplay:10.34,2013-06-27 04:49:00,
2013-06-26 22:54:00,68.8,46.6,30.05,West,275,1.0,2.0,45,0.00,,,0.00,WeatherDisplay:10.34,2013-06-27 04:54:00,
2013-06-26 22:59:00,68.8,46.6,30.05,SSW,192,6.0,7.0,45,0.00,,,0.00,WeatherDisplay:10.34,2013-06-27 04:59:00,
2013-06-26 23:04:00,68.6,46.4,30.05,SSW,211,7.0,7.0,45,0.00,,,0.00,WeatherDisplay:10.34,2013-06-27 05:04:00,
2013-06-26 23:09:00,69.4,46.5,30.05,West,269,4.0,7.0,44,0.00,,,0.00,WeatherDisplay:10.34,2013-06-27 05:09:00,
2013-06-26 23:14:00,69.5,46.6,30.05,West,279,7.0,7.0,44,0.00,,,0.00,WeatherDisplay:10.34,2013-06-27 05:14:00,
2013-06-26 23:19:00,69.5,46.6,30.05,WNW,294,0.0,1.0,44,0.00,,,0.00,WeatherDisplay:10.34,2013-06-27 05:19:00,
2013-06-26 23:24:00,69.4,47.1,30.06,SW,236,5.0,9.0,45,0.00,,,0.00,WeatherDisplay:10.34,2013-06-27 05:24:00,
2013-06-26 23:29:00,69.1,46.3,30.06,SW,230,3.0,8.0,44,0.00,,,0.00,WeatherDisplay:10.34,2013-06-27 05:29:00,
2013-06-26 23:34:00,68.5,46.9,30.06,WNW,296,4.0,5.0,46,0.00,,,0.00,WeatherDisplay:10.34,2013-06-27 05:34:00,
2013-06-26 23:39:00,67.8,46.8,30.06,WNW,302,2.0,3.0,47,0.00,,,0.00,WeatherDisplay:10.34,2013-06-27 05:39:00,
2013-06-26 23:44:00,67.3,46.9,30.06,WNW,289,3.0,5.0,48,0.00,,,0.00,WeatherDisplay:10.34,2013-06-27 05:44:00,
2013-06-26 23:49:00,66.9,47.1,30.06,WNW,289,2.0,2.0,49,0.00,,,0.00,WeatherDisplay:10.34,2013-06-27 05:49:00,
2013-06-26 23:54:00,65.9,48.3,30.07,SSE,164,2.0,2.0,53,0.00,,,0.00,WeatherDisplay:10.34,2013-06-27 05:54:00,
2013-06-26 23:59:00,64.8,48.2,30.07,SSE,164,0.0,1.0,55,0.00,,,0.00,WeatherDisplay:10.34,2013-06-27 05:59:00,